全球星 M065星 (GLOBALSTAR M065)

导读 | 豆包AI

GLOBALSTAR M065是全球星(GLOBALSTAR)卫星系统的成员,于2007年5月29日发射升空,服务于全球低轨移动通信网络。作为第一代补充卫星,它运行在约1414千米高度的近地轨道,采用三轴稳定设计,配备多波束转发器,可提供数字语音、数据传输及漫游服务,填补了地面网络覆盖盲区,支撑全球范围内偏远地区与移动场景的互联互通,设计服役寿命约7.5年。

基本信息
目录编号:
31571
目录名称:
GLOBALSTAR M065
国际标识:
2007-020A
轨道中心:
EARTH
卫星名称:
全球星 M065星
卫星全名:
全球星 M065星 (GLOBALSTAR M065)
卫星状态:
在轨 (已飞行6864 天)
发射日期:
2007-05-29 UTC
国别 :
(GLOB)
星等 :
--
轨道信息
数据来源 国际轨道数据
星历时间: 2026-03-13T22:34:29+0800
12小时前
查看轨道信息
半长轴: 7792.751km
偏心率: 0.0010066
轨道倾角: 51.988°
近地点辐角 182.931°
升交点赤经 126.226°
平近点角 341.572°
近地点: 1406.769km
远地点: 1422.459km
周期: 114.103分钟
每日圈数: 12.620211
详细信息
固有亮度:
5
最大亮度:
7.9
平衡模式:
三轴稳定
覆盖范围:
全球
运营商:
全球星公司
运营商所在国:
美国
使用方式:
暂无
卫星简介
全球星星座由48颗卫星加8颗备份星组成。这些卫星分布在8个倾角为52度的圆形轨道平面上,每个轨道平面6颗卫星,另有1 颗备用星。轨道高度约为1414km,传输时延和处理时延小于300ms,整个系统的覆盖区为南北纬70度以内的地区。该卫星已退役。
2D轨道图
3D轨道图
轨道高度分析图
轨道倾角分析图
轨道综合分析图
查看轨道综合分析图